Meteo Giornale » Osservazioni meteo Austria » Vienna-Schwechat

ore: 04:50 - Osservazioni Meteo Vienna-Schwechat
Lat. 48° 7' N Lon. 16° 34' E Alt. 183 metri s.l.m.

sereno Europe/Vienna

13 °C

Sereno

Temp. 24 Ore

10 °C

23 °C

Sud-Est

9.3 Km/h

Dew point 8 °C

Umidità 71 %

Visibilità  10 Km

Il sole sorge alle ore 06:38

Il sole tramonta alle ore 18:55

Data e Ora Cielo e Fenomeni T °C DP °C Um. % Pres. hPa Vis. km Vento km/h
Oggi h: 04:50 sereno Sereno 13 8 71 1017 10 SE 9.3
Oggi h: 04:20 sereno Sereno 13 8 71 1017 10 SE 9.3
Oggi h: 03:50 sereno Sereno 12 8 76 1017 10 S/SE 11.1
Oggi h: 03:20 sereno Sereno 12 8 76 1017 10 S/SE 13
Oggi h: 02:50 sereno Sereno 13 8 71 1017 10 SE 11.1
Oggi h: 02:20 sereno Sereno 13 8 71 1017 10 SE 13
Oggi h: 01:50 sereno Sereno 14 8 67 1017 10 E/SE 7.4
Oggi h: 01:20 sereno Sereno 14 8 67 1017 10 E 11.1
Oggi h: 00:20 sereno Sereno 12 8 76 1017 10 S/SE 9.3
Ieri h: 23:50 sereno Sereno 14 8 67 1017 10 E/SE 7.4
Ieri h: 23:20 sereno Sereno 14 8 67 1017 10 SE 7.4
Ieri h: 22:50 sereno Sereno 14 8 67 1017 10 SE 13
Ieri h: 22:20 sereno Sereno 15 9 67 1017 10 SE 9.3
Ieri h: 21:50 sereno Sereno 14 8 67 1017 10 S/SE 9.3
Ieri h: 21:20 sereno Sereno 15 8 62 1017 10 N 3.7
Ieri h: 20:50 sereno Sereno 15 8 62 1017 10 N 5.5
Ieri h: 20:20 sereno Sereno 16 8 58 1017 10 SE 9.3
Ieri h: 19:50 sereno Sereno 17 7 51 1017 10 SE 11.1
Ieri h: 19:20 sereno Sereno 19 8 48 1017 10 SE 13
Ieri h: 18:50 sereno Sereno 20 8 45 1017 10 SE 13
Ieri h: 17:50 sereno Sereno 21 7 40 1017 10 S/SE 20.3
Ieri h: 17:20 poco_nuvoloso Poco Nuvoloso 22 7 37 1017 10 SE 22.2
Ieri h: 16:50 sereno Sereno 22 8 40 1017 10 S/SE 22.2
Ieri h: 16:20 poco_nuvoloso Poco Nuvoloso 23 7 35 1017 10 SE 24
Ieri h: 15:50 poco_nuvoloso Poco Nuvoloso 23 8 38 1017 10 E/SE 24
Ieri h: 15:20 poco_nuvoloso Poco Nuvoloso 23 7 35 1017 10 SE 25.9
Ieri h: 14:50 sereno Sereno 23 6 33 1017 10 SE 24
Ieri h: 14:20 sereno Sereno 22 6 35 1017 10 SE 24
Ieri h: 13:50 sereno Sereno 22 6 35 1017 10 SE 24
Ieri h: 13:20 sereno Sereno 21 7 40 1018 10 SE 24
Ieri h: 12:50 sereno Sereno 21 6 37 1018 10 SE 24
Ieri h: 12:20 sereno Sereno 20 6 39 1018 10 SE 22.2
Ieri h: 11:50 sereno Sereno 20 7 42 1018 10 SE 20.3
Ieri h: 11:20 sereno Sereno 18 7 48 1018 10 E/SE 20.3
Ieri h: 10:50 sereno Sereno 17 7 51 1018 10 E/SE 20.3
Ieri h: 10:20 sereno Sereno 17 7 51 1018 10 E/SE 22.2
Ieri h: 09:50 sereno Sereno 16 7 55 1018 10 E/SE 18.5
Ieri h: 09:20 sereno Sereno 15 7 58 1019 10 E/SE 16.7
Ieri h: 08:50 sereno Sereno 13 7 66 1018 10 E 13
Ieri h: 08:20 sereno Sereno 12 7 71 1018 10 E/SE 11.1
Ieri h: 07:50 sereno Sereno 11 7 76 1018 10 E/SE 9.3
Ieri h: 07:20 sereno Sereno 10 6 76 1018 10 E 13
Ieri h: 06:50 sereno Sereno 11 6 71 1018 10 E 9.3